Tracking 30009 objects as of 8-Dec-2024
HD Live streaming from Space Station
objects crossing your sky now

COSMOS 397 DEB

Track COSMOS 397 DEB now!
10-day predictions


NORAD ID: 5763
Int'l Code: 1971-015CF
Perigee: 844.5 km
Apogee: 1,397.3 km
Inclination: 66.9 °
Period: 107.6 minutes
Semi major axis: 7491 km
RCS: 0.0229 m2 (small)
Launch date: February 25, 1971
Source: Commonwealth of Independent States (former USSR) (CIS)
Launch site: TYURATAM MISSILE AND SPACE COMPLEX (TTMTR)

Note: This is SATELLITE DEBRIS
Your satellite tracking list
Your tracking list is empty




NASA's NSSDC Master Catalog

Two Line Element Set (TLE):
1  5763U 71015CF  24342.67929809  .00005632  00000-0  71774-2 0  9994
2  5763  66.9013  76.6405 0368930 261.3589  94.5513 13.38798067578491
Source of the keplerian elements: AFSPC